Torna al catalogo

ATLAS 5 CENTAUR R/B

AttivoHEO
NORAD 42916·ROCKET BODY·🇺🇸 United States

Lanciato Aug 18, 2017 da Cape Canaveral Space Force Station

Loading…

Prossimi Passaggi (prossime 24 ore)

TLE

AggiornatoSource: Space-Track

Epoca: Sep 13, 2026, 09:58 UTC

1 42916U 17047B   26256.41593894 -.00000335  00000-0  00000-0 0  9997
2 42916  25.1973 183.5384 5815366 310.3144  11.8436  2.06621761 68494

Traccia ATLAS 5 CENTAUR R/B in tempo reale con AllMySat

Download on the App Store